{"data":{"norad_id":58885,"intl_designator":"2024-020K","name":"STARLINK-31318","alt_names":[],"object_type":"PAYLOAD","status":"ACTIVE","operator":null,"country":"US","launch_date":"2024-01-29","launch_site_code":"AFWTR","launch_vehicle":null,"mission":null,"orbit_class":"UNKNOWN","rcs_meters":null,"size_class":null,"mass_kg":null,"dimensions":null,"purposes":["comms"],"wikipedia_slug":null,"has_3d_model":false,"image_url":null,"decayed_at":null,"tle_current":{"epoch":"2026-05-23T22:48:57.830112Z","epoch_age_seconds":159041,"freshness":"FRESH","line1":"1 58885U 24020K   26143.95066933  .00000572  00000+0  30199-4 0  9998","line2":"2 58885  53.1613 332.8491 0001094  85.5653 274.5473 15.31704434129591","mean_motion":15.31704434,"eccentricity":0.0001094,"inclination_deg":53.1613,"raan_deg":332.8491,"arg_perigee_deg":85.5653,"mean_anomaly_deg":274.5473,"bstar":3.0199e-5,"rev_number":12959,"period_min":94.012915810362,"perigee_km":469.97751203697,"apogee_km":471.47604343154,"semimajor_km":6848.8637777343,"source":"CELESTRAK","updated_at":"2026-05-25T13:38:18.785541Z"}}}